#timestamp,LO_Frequency,Hit 
1502010015.1,286046990.7,N
1502010016.0,286046990.7,N
1502010035.8,286046994.3,N
1502010055.7,286046994.4,N
1502010075.5,286046993.0,N
1502010095.3,286046990.3,N
1502010115.2,286046990.2,N
1502010135.9,286046990.4,N
1502010155.6,286046990.4,N
1502010175.4,286046990.1,N
1502010195.9,286046991.8,N
1502010215.7,286046993.5,N
1502010235.2,286046992.3,N
1502010255.1,286046993.2,N
1502010256.0,286046993.2,N
1502010275.8,286046992.4,N
1502010295.6,286046990.6,N
1502010315.5,286046992.9,N
1502010335.3,286046990.2,N
1502010355.1,286046992.1,N
1502010375.9,286046992.3,N
1502010395.7,286046990.5,N
1502010415.5,286046990.3,N
1502010435.3,286046994.3,N
1502010455.2,286046994.5,N
1502010475.9,286046994.2,N
1502010495.7,286046993.4,N
1502010515.6,286046994.3,N
1502010535.4,286046993.6,N
1502010555.2,286046994.1,N
1502010575.1,286046994.5,N
1502010576.0,286046994.5,N
1502010595.8,286046994.7,N
1502010615.6,286046992.5,N
1502010635.4,286046992.2,N
1502010655.3,286046990.8,N
1502010675.1,286046990.2,N
1502010695.8,286046993.0,N
1502010715.7,286046992.7,N
1502010735.5,286046991.7,N
1502010755.3,286046993.4,N
1502010775.2,286046993.6,N
1502010795.9,286046992.4,N
1502010815.7,286046994.4,N
1502010835.6,286046991.8,N
1502010855.4,286046992.0,N
1502010875.2,286046991.8,N
1502010895.0,286046993.0,N
1502010896.0,286046993.0,N
1502010915.8,286046990.8,N
1502010935.6,286046990.2,N
1502010955.4,286046991.6,N
1502010975.3,286046990.4,N
1502010995.1,286046990.9,N
1502011015.8,286046990.0,N
1502011035.7,286046987.8,N
1502011055.5,286046989.8,N
1502011075.3,286046990.9,N
1502011095.2,286046991.1,N
1502011115.9,286046990.4,N
1502011135.7,286046990.9,N
1502011155.6,286046990.4,N
1502011175.4,286046990.7,N
1502011195.2,286046988.7,N
1502011215.0,286046991.6,N
1502011215.9,286046991.6,N
1502011235.8,286046990.4,N
1502011255.6,286046991.5,N
1502011275.4,286046991.0,N
1502011295.3,286046988.5,N
1502011315.1,286046990.6,N
1502011335.8,286046990.5,N
1502011355.7,286046988.8,N
1502011375.5,286046990.7,N
1502011395.3,286046988.6,N
1502011415.2,286046988.5,N
1502011435.9,286046989.3,N
1502011455.7,286046991.4,N
1502011475.6,286046991.2,N
1502011495.4,286046991.0,N
1502011515.2,286046991.4,N
1502011535.0,286046988.8,N
1502011535.9,286046988.8,N
1502011555.8,286046991.1,N
1502011575.6,286046987.3,N
1502011595.4,286046989.2,N
1502011615.3,286046987.6,N
1502011635.1,286046988.5,N
1502011655.8,286046992.8,N
1502011675.7,286046990.6,N
1502011695.5,286046991.4,N
1502011715.3,286046992.0,N
1502011735.2,286046992.6,N
1502011755.9,286046991.0,N
1502011775.7,286046991.5,N
1502011795.6,286046990.0,N
1502011815.4,286046988.8,N
1502011835.2,286046989.3,N
1502011855.0,286046987.7,N
1502011855.9,286046987.7,N
1502011875.8,286046989.9,N
1502011895.6,286046987.6,N
1502011915.4,286046987.3,N
1502011935.3,286046989.8,N
1502011955.1,286046989.2,N
1502011975.8,286046992.3,N
1502011995.7,286046990.9,N
1502012015.5,286046990.5,N
1502012035.3,286046991.6,N
1502012055.2,286046989.4,N
1502012075.9,286046989.8,N
1502012095.7,286046989.8,N
1502012115.6,286046987.3,N
1502012135.4,286046987.2,N
1502012155.2,286046987.8,N
1502012175.0,286046988.0,N
1502012175.9,286046988.0,N
1502012195.8,286046987.8,N
1502012215.6,286046989.9,N
1502012235.4,286046986.9,N
1502012255.3,286046989.6,N
1502012275.1,286046989.0,N
1502012295.8,286046989.8,N
1502012315.7,286046987.0,N
1502012335.5,286046988.1,N
1502012355.3,286046987.6,N
1502012375.2,286046987.7,N
1502012395.9,286046988.7,N
1502012415.7,286046989.5,N
1502012435.6,286046987.1,N
1502012455.4,286046987.5,N
1502012475.2,286046989.7,N
1502012495.0,286046988.5,N
1502012495.9,286046988.5,N
1502012515.8,286046990.7,N
1502012535.6,286046990.5,N
1502012555.4,286046991.0,N
1502012575.3,286046991.4,N
1502012595.1,286046991.4,N
1502012596.0,286046991.4,N
1502012615.8,286046991.0,N
1502012635.7,286046991.4,N
1502012655.5,286046990.9,N
1502012675.3,286046991.1,N
1502012695.2,286046990.5,N
1502012715.9,286046993.1,N
1502012735.7,286046989.0,N
1502012755.5,286046988.5,N
1502012775.4,286046989.3,N
1502012795.2,286046988.1,N
1502012815.0,286046988.3,N
1502012815.9,286046988.3,N
1502012835.8,286046986.2,N
1502012855.6,286046989.5,N
1502012875.4,286046988.0,N
1502012895.3,286046987.0,N
1502012915.1,286046987.9,N
1502012916.0,286046987.9,N
1502012935.8,286046988.0,N
1502012955.7,286046990.0,N
1502012975.5,286046986.9,N
1502012995.3,286046989.8,N
1502013015.2,286046987.0,N
1502013035.9,286046985.9,N
1502013055.7,286046988.3,N
1502013075.5,286046985.3,N
1502013095.4,286046989.4,N
1502013115.2,286046987.3,N
1502013135.0,286046987.4,N
1502013135.9,286046987.4,N
1502013155.8,286046987.6,N
1502013175.6,286046987.0,N
1502013195.4,286046987.0,N
1502013215.3,286046990.8,N
1502013235.1,286046990.3,N
1502013236.0,286046990.3,N
1502013255.8,286046991.2,N
1502013275.7,286046991.6,N
1502013295.8,286046989.8,N
1502013315.6,286046987.6,N
1502013335.4,286046989.3,N
1502013355.2,286046991.3,N
1502013375.1,286046988.0,N
1502013376.0,286046988.0,N
1502013395.8,286046985.3,N
1502013415.6,286046985.6,N
1502013435.5,286046983.9,N
1502013455.3,286046986.6,N
1502013475.1,286046983.7,N
1502013495.9,286046984.1,N
1502013515.7,286046985.4,N
1502013535.5,286046986.5,N
1502013555.4,286046983.9,N
1502013575.2,286046985.3,N
1502013595.0,286046985.5,N
1502013595.9,286046985.5,N
